[[{"header":{"parameterUnit":"m.s-1","parameterCategory":1,"la1":30.2991,"la2":30.254,"lo1":-89.0895,"lo2":-89.0444,"dy":0.0017,"dx":0.0017,"nx":28,"ny":28,"refTime":"2024-04-22T21:00:00:Z","depth":0,"parameterNumber":2,"parameterNumberName":"U-component_of_WINDS"},"data":[0,0,0,0,0,0,0,0,0,0,0,0,0,0,0,0,0,0,0,0,0,0,0,0,0,0,0,0,0,0,0,0,0,0,0,0,0,0,0,0,0,0,0,0,0,0,0,0,0,0,0,0,0,0,0,0,0,0,-3.7482,-3.7482,0,-3.7509,-3.7509,-3.7509,-3.7377,-3.7373,-3.7369,-3.7365,-3.7395,-3.7399,-3.7403,0,0,0,0,0,0,0,0,0,0,0,0,0,-3.7318,-3.7322,-3.7482,-3.7483,-3.7483,-3.7509,-3.7509,-3.7509,-3.7377,-3.7373,-3.7368,-3.7364,-3.7393,-3.7398,-3.7404,0,0,0,0,0,0,0,0,0,0,0,0,0,-3.7371,-3.7323,-3.7482,-3.742,-3.7415,-3.7509,-3.7509,-3.7509,-3.7378,-3.7373,-3.7367,-3.7362,-3.7392,-3.7398,-3.7404,-3.756,0,0,-3.7424,-3.7427,0,0,0,0,0,0,0,0,-3.7369,-3.7378,-3.7429,-3.7424,-3.7419,-3.7433,-3.7462,-3.7526,-3.738,-3.7392,-3.7365,-3.7359,-3.7412,-3.7417,-3.7434,-3.7561,-3.7562,-3.7425,-3.7429,-3.7432,-3.7433,0,0,0,0,0,0,0,-3.7365,-3.7376,-3.7493,-3.743,-3.7424,-3.7391,-3.7392,-3.7473,-3.7434,-3.7391,-3.7381,-3.7386,-3.7408,-3.7429,-3.7434,-3.7563,-3.7425,-3.743,-3.7434,-3.7437,-3.7816,-3.7822,0,0,0,0,0,0,-3.7369,-3.7374,-3.7492,-3.7493,-3.7379,-3.7399,-3.74,-3.7435,-3.7433,-3.7427,-3.7391,-3.738,-3.742,-3.7427,-3.7435,-3.7614,-3.7432,-3.7438,-3.7441,-3.781,-3.7817,-3.7824,0,0,0,0,0,0,-3.7366,-3.7381,-3.7491,-3.7431,-3.7442,-3.7408,-3.7447,-3.7438,-3.7458,-3.7433,-3.7426,-3.7418,-3.7416,-3.7426,-3.7529,-3.7613,-3.7441,-3.7447,-3.7803,-3.7812,-3.7821,-3.7976,0,0,0,0,0,0,-3.7362,-3.7381,-3.7439,-3.7433,-3.7446,-3.7585,-3.7453,-3.7443,-3.7469,-3.7455,-3.7457,-3.7452,-3.7412,-3.752,-3.7535,-3.7619,-3.7452,-3.7795,-3.7807,-3.7818,-3.7964,-3.799,-3.8012,0,0,0,0,0,-3.7357,-3.7483,-3.7443,-3.7458,-3.7518,-3.759,-3.7597,-3.7548,-3.7477,-3.7535,-3.7519,-3.7452,-3.7603,-3.7532,-3.7548,-3.7635,-3.7789,-3.7803,-3.7817,-3.7953,-3.7985,-3.8012,0,0,0,0,0,0,-3.7501,-3.7481,-3.7437,-3.7565,-3.758,-3.7567,-3.7639,-3.7584,-3.7621,-3.7606,-3.7544,-3.7546,-3.766,-3.7658,-3.758,-3.7784,-3.7683,-3.7701,-3.7781,-3.7811,-3.7835,-3.7832,-3.7457,0,0,0,0,0,-3.7548,-3.7607,-3.7587,-3.7702,-3.7711,-3.7675,-3.7704,-3.7665,-3.7678,-3.7684,-3.7676,-3.7692,-3.7742,-3.7777,-3.7823,-3.7964,-3.7961,-3.8032,-3.8056,-3.8076,-3.8092,-3.8164,-3.8194,-3.7869,-3.7869,-3.7869,0,0,-3.7645,-3.7641,-3.7683,-3.7731,-3.7738,-3.78,-3.7681,-3.7753,-3.7798,-3.7695,-3.7791,-3.7786,-3.78,-3.7923,-3.7976,-3.7925,-3.8181,-3.8094,-3.811,-3.8114,-3.8181,-3.8212,-3.8239,-3.7879,-3.7877,-3.7876,0,0,-3.7853,-3.7857,-3.7952,-3.7961,-3.7973,-3.7948,-3.7971,-3.7967,-3.7959,-3.8055,-3.7978,-3.8032,-3.8121,-3.8133,-3.8151,-3.8364,-3.8303,-3.8381,-3.8508,-3.8579,-3.8604,-3.8627,-3.87,-3.8728,-3.8397,-3.8397,-3.8398,0,-3.7971,-3.8062,-3.8008,-3.8084,-3.8107,-3.8016,-3.8111,-3.8124,-3.8151,-3.8168,-3.8111,-3.8219,-3.8223,-3.8345,-3.8397,-3.8416,-3.8439,-3.8379,-3.8605,-3.8627,-3.8647,-3.8716,-3.8744,-3.8406,-3.8405,-3.8404,-3.8404,0,-3.8207,-3.8271,-3.8346,-3.8373,-3.8404,-3.849,-3.8449,-3.8488,-3.8446,-3.8427,-3.8525,-3.8526,-3.8569,-3.8596,-3.8557,-3.8713,-3.868,-3.8616,-3.8512,-3.8688,-3.8752,-3.8778,-3.842,-3.8416,-3.8414,-3.8411,0,0,-3.8505,-3.85,-3.8528,-3.8538,-3.8545,-3.8594,-3.8676,-3.8716,-3.875,-3.8772,-3.8838,-3.8915,-3.8854,-3.8875,-3.8837,-3.89,-3.9065,-3.8826,-3.8826,-3.8869,-3.9235,-3.9282,-3.9314,-3.9026,-3.9031,-3.9035,-3.9233,0,-3.8706,-3.8843,-3.8797,-3.8937,-3.8994,-3.891,-3.898,-3.8992,-3.8977,-3.9024,-3.9007,-3.9061,-3.8978,-3.899,-3.9049,-3.9033,-3.9138,-3.9018,-3.9085,-3.9088,-3.9082,-3.9348,-3.9398,-3.9585,-3.9258,-3.9262,-3.9265,0,-3.8958,-3.8989,-3.9135,-3.913,-3.9152,-3.9217,-3.925,-3.9296,-3.9308,-3.9292,-3.9315,-3.9263,-3.9343,-3.9241,-3.9349,-3.9269,-3.9294,-3.9291,-3.9297,-3.9299,-3.9186,-3.9355,-3.9644,-3.9671,-3.9305,-3.9302,-3.9299,0,-3.9158,-3.9236,-3.9332,-3.9344,-3.9342,-3.9389,-3.939,-3.9396,-3.9423,-3.9453,-3.947,-3.951,-3.9531,-3.9562,-3.9522,-3.9453,-3.9636,-3.9531,-3.9624,-3.9625,-3.9664,-3.9661,-3.9958,-3.9685,-3.9685,-3.9684,-3.9684,0,-3.9386,-3.9477,-3.9421,-3.948,-3.958,-3.9527,-3.9627,-3.9619,-3.9625,-3.9681,-3.9612,-3.9666,-3.9611,-3.966,-3.963,-3.9723,-3.9734,-3.9722,-3.9713,-3.9727,-3.9728,-3.974,-3.9725,-3.9692,-3.969,-3.9689,-3.9687,0,-3.9624,-3.959,-3.9689,-3.9679,-3.9679,-3.9753,-3.9744,-3.9798,-3.9778,-3.9849,-3.9863,-3.9832,-3.9886,-3.985,-3.9905,-3.9884,-4.0005,-3.9979,-4.0,-3.9992,-4.0085,-4.0076,-4.0398,-4.0437,-4.0142,-4.0145,-4.0147,0,-3.977,-3.9838,-3.9835,-3.9867,-3.9872,-3.9926,-3.9952,-3.9903,-3.9934,-3.9952,-4.0004,-4.0052,-4.0087,-4.0178,-4.016,-4.0202,-4.0174,-4.0284,-4.018,-4.0191,-4.0172,-4.0168,-4.0173,-4.0305,-4.0308,-4.0311,-4.0313,0,-4.0032,-4.0012,-4.0053,-4.0089,-4.0123,-4.0149,-4.017,-4.02,-4.015,-4.0189,-4.0243,-4.027,-4.0326,-4.0374,-4.0408,-4.0409,-4.0353,-4.0347,-4.0369,-4.0383,-4.0392,-4.0386,-4.0055,-4.0339,-4.0336,-4.0334,-4.0333,-4.0332,-4.0226,-4.0282,-4.0288,-4.0336,-4.0347,-4.0367,-4.0417,-4.0403,-4.0446,-4.0486,-4.0455,-4.0519,-4.0529,-4.0569,-4.0577,-4.0627,-4.0581,-4.0616,-4.0624,-4.0632,-4.0644,-4.0387,-4.0633,-4.0632,-4.0632,-4.0631,-4.063,0,-4.0482,-4.0482,-4.0527,-4.0557,-4.0595,-4.0539,-4.0558,-4.0594,-4.065,-4.0664,-4.07,-4.0761,-4.0808,-4.0794,-4.0835,-4.0877,-4.0852,-4.0889,-4.0884,-4.0885,-4.0683,-4.0658,-4.0909,-4.0909,-4.0908,-4.0908,-4.0908,-4.0908,-4.0619,-4.071,-4.0691,-4.0786,-4.0785,-4.0846,-4.0862,-4.088,-4.089,-4.0961,-4.0999,-4.099,-4.0992,-4.1033,-4.1073,-4.1067,-4.1084,-4.1131,-4.1116,-4.0927,-4.09,-4.0873,-4.0849,-4.1136,-4.1136,-4.1313,-4.1315,-4.1316]},{"header":{"parameterUnit":"m.s-1","parameterCategory":1,"la1":30.2991,"la2":30.254,"lo1":-89.0895,"lo2":-89.0444,"dy":0.0017,"dx":0.0017,"nx":28,"ny":28,"refTime":"2024-04-22T21:00:00:Z","depth":0,"parameterNumber":3,"parameterNumberName":"V-component_of_WINDS"},"data":[0,0,0,0,0,0,0,0,0,0,0,0,0,0,0,0,0,0,0,0,0,0,0,0,0,0,0,0,0,0,0,0,0,0,0,0,0,0,0,0,0,0,0,0,0,0,0,0,0,0,0,0,0,0,0,0,0,0,0.8018,0.8017,0,0.7961,0.796,0.7959,0.7803,0.78,0.7797,0.7793,0.7741,0.7743,0.7745,0,0,0,0,0,0,0,0,0,0,0,0,0,0.7998,0.7999,0.8018,0.8017,0.8016,0.7961,0.796,0.7959,0.7804,0.78,0.7796,0.7792,0.7741,0.7743,0.7745,0,0,0,0,0,0,0,0,0,0,0,0,0,0.798,0.7999,0.8018,0.7932,0.7924,0.7961,0.796,0.7959,0.7805,0.78,0.7795,0.779,0.774,0.7742,0.7745,0.7863,0,0,0.7753,0.7754,0,0,0,0,0,0,0,0,0.7982,0.7981,0.7945,0.7938,0.7929,0.7884,0.7934,0.7927,0.7806,0.785,0.7793,0.7787,0.7793,0.7791,0.7792,0.7861,0.7858,0.7753,0.7755,0.7756,0.7757,0,0,0,0,0,0,0,0.7983,0.7983,0.7995,0.7945,0.7935,0.7898,0.789,0.7932,0.7851,0.7846,0.7834,0.7829,0.7788,0.779,0.7789,0.7858,0.7753,0.7756,0.7757,0.7758,0.8022,0.8027,0,0,0,0,0,0,0.7996,0.7985,0.7997,0.7993,0.7943,0.7903,0.7894,0.7903,0.785,0.7837,0.7834,0.7822,0.7788,0.7786,0.7787,0.7922,0.7756,0.7759,0.776,0.8016,0.8023,0.8029,0,0,0,0,0,0,0.7996,0.7998,0.7999,0.7986,0.7983,0.7908,0.7921,0.7905,0.7906,0.7841,0.7826,0.785,0.7783,0.7783,0.7845,0.7918,0.776,0.7762,0.801,0.8018,0.8026,0.8193,0,0,0,0,0,0,0.7996,0.7999,0.8042,0.7988,0.7985,0.8057,0.7925,0.7908,0.7911,0.7895,0.7852,0.784,0.7779,0.7842,0.7848,0.7919,0.7764,0.8003,0.8014,0.8023,0.8181,0.8206,0.8228,0,0,0,0,0,0.7996,0.8092,0.8045,0.8047,0.8036,0.8061,0.806,0.7986,0.7917,0.796,0.7918,0.7842,0.7909,0.785,0.7855,0.7928,0.7998,0.8011,0.8023,0.8171,0.8201,0.8227,0,0,0,0,0,0,0.8158,0.8083,0.803,0.8111,0.8094,0.8035,0.8087,0.8021,0.8023,0.8009,0.7919,0.7911,0.7986,0.7963,0.7898,0.804,0.7941,0.7955,0.8052,0.8081,0.8104,0.8108,0.7766,0,0,0,0,0,0.8203,0.8228,0.8162,0.8241,0.8234,0.8163,0.8171,0.8116,0.8095,0.8087,0.8049,0.8034,0.8051,0.8064,0.8077,0.8177,0.8166,0.823,0.8254,0.8273,0.8286,0.8339,0.8367,0.8069,0.8069,0.8069,0,0,0.8297,0.8259,0.8281,0.8272,0.8252,0.8282,0.8158,0.8194,0.8216,0.8093,0.8148,0.8121,0.8098,0.818,0.8214,0.8163,0.8366,0.8289,0.8305,0.8307,0.8354,0.8383,0.8408,0.8077,0.8076,0.8074,0,0,0.8482,0.8456,0.8518,0.8501,0.8471,0.8423,0.8439,0.839,0.8366,0.842,0.8329,0.8355,0.8387,0.8374,0.8372,0.8555,0.8485,0.8562,0.8684,0.8737,0.876,0.8781,0.8847,0.8872,0.8575,0.8576,0.8576,0,0.8603,0.8642,0.856,0.8602,0.8602,0.8491,0.8555,0.8542,0.852,0.8523,0.8466,0.8504,0.848,0.8558,0.8603,0.8605,0.8621,0.8566,0.8763,0.8783,0.8801,0.8863,0.8888,0.8585,0.8584,0.8583,0.8582,0,0.8793,0.8822,0.8876,0.8855,0.8861,0.8915,0.8843,0.8859,0.8804,0.8763,0.8821,0.8788,0.8793,0.8807,0.8754,0.8879,0.8848,0.8779,0.8678,0.884,0.8897,0.892,0.8599,0.8595,0.8592,0.859,0,0,0.9078,0.9011,0.9033,0.9022,0.8982,0.9004,0.9054,0.9056,0.9073,0.9062,0.9102,0.9132,0.9068,0.9065,0.901,0.9056,0.9205,0.8981,0.8979,0.9024,0.9342,0.9395,0.9423,0.9158,0.9163,0.9166,0.9344,0,0.9254,0.9332,0.926,0.9353,0.938,0.9276,0.9319,0.9301,0.9264,0.9283,0.9243,0.9266,0.9179,0.9177,0.9218,0.9178,0.9268,0.9164,0.9197,0.9199,0.9206,0.9453,0.9508,0.9678,0.9366,0.9369,0.9372,0,0.9469,0.9466,0.9562,0.9516,0.9525,0.9565,0.9562,0.9581,0.9559,0.953,0.9528,0.946,0.9508,0.941,0.9475,0.9407,0.9416,0.9399,0.9404,0.9404,0.9296,0.9461,0.973,0.9756,0.9406,0.9403,0.9401,0,0.9669,0.9689,0.9749,0.9743,0.9692,0.9722,0.9703,0.9675,0.9682,0.9681,0.9685,0.969,0.9693,0.97,0.9637,0.957,0.9711,0.9607,0.969,0.9692,0.9724,0.9723,0.9999,0.973,0.973,0.9729,0.9729,0,0.9872,0.9935,0.9838,0.9875,0.9943,0.9861,0.9931,0.9901,0.9878,0.9909,0.982,0.9851,0.9765,0.9789,0.974,0.9803,0.9805,0.9784,0.977,0.9792,0.9795,0.9797,0.9784,0.9736,0.9734,0.9733,0.9732,0,1.0107,1.0043,1.0102,1.0048,1.0037,1.009,1.0045,1.0078,1.0036,1.0076,1.0081,1.0016,1.0039,0.9976,0.999,0.9957,1.0048,1.0015,1.0055,1.0045,1.0132,1.0125,1.0419,1.0454,1.0163,1.0166,1.0168,0,1.0241,1.0286,1.0238,1.0251,1.0236,1.0259,1.0265,1.0187,1.0198,1.0177,1.0214,1.0229,1.0236,1.0279,1.0234,1.0245,1.0212,1.0314,1.0213,1.0234,1.0214,1.0212,1.0217,1.0336,1.0339,1.0342,1.0344,0,1.0486,1.0453,1.0464,1.0465,1.0475,1.0472,1.0464,1.0481,1.0397,1.0414,1.0435,1.0442,1.0455,1.0473,1.0474,1.0455,1.0388,1.0377,1.0396,1.0419,1.0441,1.0431,1.0113,1.037,1.0368,1.0366,1.0364,1.0363,1.0674,1.071,1.0682,1.0698,1.0683,1.0678,1.0707,1.0668,1.0684,1.0687,1.0641,1.0673,1.0652,1.0646,1.0635,1.066,1.0614,1.0642,1.0649,1.0658,1.0673,1.0437,1.066,1.066,1.0659,1.0658,1.0658,0,1.0915,1.0892,1.0907,1.0898,1.0911,1.0844,1.0832,1.0848,1.0876,1.0861,1.0871,1.0897,1.0913,1.087,1.0881,1.091,1.0879,1.0915,1.0912,1.091,1.0713,1.0695,1.094,1.094,1.094,1.094,1.094,1.094,1.1042,1.11,1.1064,1.1115,1.1091,1.112,1.1119,1.1114,1.1102,1.1134,1.1147,1.1118,1.1092,1.1101,1.1114,1.1101,1.1109,1.1157,1.1134,1.0951,1.0923,1.0897,1.088,1.1159,1.116,1.1328,1.1329,1.1331]}]]